Find Starlink 30847

NORAD ID: 58239 Int'l Des: 2023-171 Owner: SPXS Country: US Constellation: starlink operational
LEOCIRCULAR

Current View

Loading 3D Globe...

About Starlink 30847

Starlink 30847 (NORAD 58239) is a starlink constellation satellite (v2 mini) launched Nov 8, 2023 by SPXS of US. It operates in LEO, CIRCULAR orbit with a mass of 730.00 kg.

About Starlink 30847

Description loading...

Upcoming Passes

Passes for default location (London). Set your location on the main map for personalized predictions.

Altitude History

Loading altitude history...

Two-Line Element Set

1 58239U 23171K 26171.42051816 .00000593 00000-0 31086-4 0 9994
2 58239 43.0038 65.2499 0001365 250.6923 109.3781 15.27580004145443
Epoch: Jun 20, 2026 • Age: 18 hours

Current Status

Altitude 482.1 km
Velocity 7.63 km/s
Sub-Earth Point 12.97°N, 103.39°W
Launch Date Nov 8, 2023
Age 2.6 years
Type internet

Technical Details

Classification Payload
Mass 730.00 kg
Dry Mass 700.00 kg
Total Mass 730.00 kg
Length 0.30 m
Diameter 4.10 m
Span 29.00 m
Shape Box + pan
Manufacturer SPXS
Bus Type Starlink V2M
Phase Status In Orbit
Owner/State SPXS/US

Most Searched